| time (UTC) | temp F | wind direction | speed MPH | gust MPH | rain 1hr in | rain 24hr in | rain mn in | humidity % | barometer mb |
| 20260505165227 | 75 | 275 | 3.0 | 8.0 | 0.00 | 0.00 | 0.00 | 44 | 1011.4 |
| 20260505164226 | 75 | 186 | 0.0 | 8.0 | 0.00 | 0.00 | 0.00 | 46 | 1011.5 |
| 20260505163227 | 74 | 92 | 1.0 | 11.0 | 0.00 | 0.00 | 0.00 | 47 | 1011.7 |
| 20260505162226 | 75 | 64 | 2.0 | 12.0 | 0.00 | 0.00 | 0.00 | 46 | 1011.7 |
| 20260505161324 | 75 | 300 | 5.0 | 10.0 | 0.00 | 0.00 | 0.00 | 47 | 1011.6 |
| 20260505161226 | 75 | 300 | 5.0 | 10.0 | 0.00 | 0.00 | 0.00 | 47 | 1011.6 |
| 20260505160258 | 75 | 296 | 7.0 | 9.0 | 0.00 | 0.00 | 0.00 | 48 | 1011.6 |
| 20260505160226 | 75 | 296 | 7.0 | 9.0 | 0.00 | 0.00 | 0.00 | 48 | 1011.6 |
| 20260505153338 | 73 | 274 | 3.0 | 8.0 | 0.00 | 0.00 | 0.00 | 51 | 1011.7 |
| 20260505153225 | 73 | 274 | 3.0 | 8.0 | 0.00 | 0.00 | 0.00 | 51 | 1011.7 |
| 20260505152337 | 73 | 74 | 0.0 | 4.0 | 0.00 | 0.00 | 0.00 | 50 | 1011.6 |
| 20260505152225 | 73 | 74 | 0.0 | 4.0 | 0.00 | 0.00 | 0.00 | 50 | 1011.6 |
| 20260505151255 | 72 | 99 | 3.0 | 5.0 | 0.00 | 0.00 | 0.00 | 51 | 1011.6 |
| 20260505151225 | 72 | 99 | 3.0 | 5.0 | 0.00 | 0.00 | 0.00 | 51 | 1011.6 |
| 20260505150224 | 72 | 335 | 1.0 | 3.0 | 0.00 | 0.00 | 0.00 | 53 | 1011.6 |
| 20260505140227 | 69 | 292 | 2.0 | 1.0 | 0.00 | 0.00 | 0.00 | 61 | 1012.0 |
| 20260505110224 | 51 | 25 | 0.0 | 0.0 | 0.00 | 0.00 | 0.00 | 87 | 1010.5 |
| 20260505030150 | 66 | 335 | 0.0 | 0.0 | 0.00 | 0.00 | 0.00 | 59 | 1010.2 |
| 20260505025150 | 66 | 335 | 0.0 | 0.0 | 0.00 | 0.00 | 0.00 | 58 | 1010.2 |
| 20260505024150 | 66 | 335 | 0.0 | 0.0 | 0.00 | 0.00 | 0.00 | 58 | 1010.2 |
| 20260505023150 | 66 | 335 | 0.0 | 0.0 | 0.00 | 0.00 | 0.00 | 57 | 1010.4 |
| 20260505022150 | 67 | 335 | 0.0 | 1.0 | 0.00 | 0.00 | 0.00 | 57 | 1010.4 |
| 20260505021150 | 67 | 335 | 0.0 | 1.0 | 0.00 | 0.00 | 0.00 | 56 | 1010.3 |
| 20260505020149 | 67 | 335 | 0.0 | 1.0 | 0.00 | 0.00 | 0.00 | 55 | 1010.2 |
| 20260505015149 | 68 | 316 | 1.0 | 2.0 | 0.00 | 0.00 | 0.00 | 55 | 1010.1 |
| 20260505014149 | 68 | 311 | 0.0 | 1.0 | 0.00 | 0.00 | 0.00 | 54 | 1010.1 |
| 20260505013149 | 69 | 298 | 0.0 | 2.0 | 0.00 | 0.00 | 0.00 | 53 | 1010.0 |
| 20260505012149 | 69 | 290 | 0.0 | 2.0 | 0.00 | 0.00 | 0.00 | 52 | 1009.9 |
| 20260505011149 | 70 | 321 | 1.0 | 2.0 | 0.00 | 0.00 | 0.00 | 51 | 1009.8 |
| 20260505010149 | 71 | 286 | 1.0 | 2.0 | 0.00 | 0.00 | 0.00 | 49 | 1009.8 |
| 20260505005148 | 71 | 294 | 0.0 | 2.0 | 0.00 | 0.00 | 0.00 | 48 | 1009.6 |
| 20260505002646 | 73 | 290 | 0.0 | 1.0 | 0.00 | 0.00 | 0.00 | 45 | 1009.5 |
| 20260505001646 | 73 | 290 | 0.0 | 1.0 | 0.00 | 0.00 | 0.00 | 44 | 1009.5 |
| 20260505000646 | 74 | 286 | 1.0 | 1.0 | 0.00 | 0.00 | 0.00 | 44 | 1009.5 |
| 20260504235646 | 74 | 296 | 0.0 | 7.0 | 0.00 | 0.00 | 0.00 | 43 | 1009.4 |
| 20260504234646 | 74 | 275 | 1.0 | 4.0 | 0.00 | 0.00 | 0.00 | 43 | 1009.3 |
| 20260504233645 | 75 | 22 | 1.0 | 2.0 | 0.00 | 0.00 | 0.00 | 42 | 1009.3 |
| 20260504232645 | 75 | 309 | 1.0 | 3.0 | 0.00 | 0.00 | 0.00 | 42 | 1009.2 |
| 20260504231645 | 76 | 130 | 1.0 | 3.0 | 0.00 | 0.00 | 0.00 | 44 | 1009.1 |
| 20260504230645 | 75 | 277 | 2.0 | 2.0 | 0.00 | 0.00 | 0.00 | 45 | 1009.1 |
| 20260504225644 | 75 | 341 | 0.0 | 3.0 | 0.00 | 0.00 | 0.00 | 44 | 1009.1 |
| 20260504224644 | 75 | 249 | 0.0 | 5.0 | 0.00 | 0.00 | 0.00 | 44 | 1009.3 |
| 20260504223644 | 75 | 238 | 1.0 | 3.0 | 0.00 | 0.00 | 0.00 | 44 | 1009.3 |
| 20260504222644 | 76 | 271 | 1.0 | 5.0 | 0.00 | 0.00 | 0.00 | 43 | 1009.3 |
| 20260504221643 | 76 | 298 | 1.0 | 4.0 | 0.00 | 0.00 | 0.00 | 42 | 1009.3 |
| 20260504220643 | 76 | 252 | 2.0 | 5.0 | 0.00 | 0.00 | 0.00 | 43 | 1009.4 |
| 20260504213643 | 77 | 302 | 1.0 | 8.0 | 0.00 | 0.00 | 0.00 | 40 | 1009.3 |
| 20260504212642 | 77 | 57 | 0.0 | 10.0 | 0.00 | 0.00 | 0.00 | 41 | 1009.4 |
| 20260504211642 | 77 | 313 | 1.0 | 7.0 | 0.00 | 0.00 | 0.00 | 41 | 1009.4 |
| 20260504210642 | 78 | 121 | 1.0 | 8.0 | 0.00 | 0.00 | 0.00 | 39 | 1009.5 |
| 20260504205647 | 77 | 284 | 4.0 | 2.0 | 0.00 | 0.00 | 0.00 | 41 | 1009.6 |
| 20260504204646 | 77 | 30 | 2.0 | 8.0 | 0.00 | 0.00 | 0.00 | 42 | 1009.6 |
| 20260504203646 | 77 | 318 | 3.0 | 10.0 | 0.00 | 0.00 | 0.00 | 40 | 1009.8 |
| 20260504202646 | 77 | 301 | 0.0 | 13.0 | 0.00 | 0.00 | 0.00 | 40 | 1009.9 |
| 20260504201646 | 76 | 302 | 4.0 | 7.0 | 0.00 | 0.00 | 0.00 | 46 | 1010.0 |
| 20260504200646 | 77 | 107 | 0.0 | 9.0 | 0.00 | 0.00 | 0.00 | 45 | 1010.2 |
| 20260504195645 | 76 | 286 | 2.0 | 8.0 | 0.00 | 0.00 | 0.00 | 44 | 1010.3 |
| 20260504194645 | 77 | 86 | 0.0 | 9.0 | 0.00 | 0.00 | 0.00 | 43 | 1010.5 |
| 20260504193754 | 76 | 271 | 1.0 | 7.0 | 0.00 | 0.00 | 0.00 | 48 | 1010.6 |
| 20260504193645 | 76 | 271 | 1.0 | 7.0 | 0.00 | 0.00 | 0.00 | 48 | 1010.6 |
| 20260504192645 | 76 | 78 | 0.0 | 9.0 | 0.00 | 0.00 | 0.00 | 46 | 1010.8 |
| 20260504191644 | 76 | 294 | 3.0 | 4.0 | 0.00 | 0.00 | 0.00 | 48 | 1010.9 |
| 20260504191232 | 75 | 82 | 2.0 | 8.0 | 0.00 | 0.00 | 0.00 | 46 | 1011.1 |
| 20260504190643 | 75 | 82 | 2.0 | 8.0 | 0.00 | 0.00 | 0.00 | 46 | 1011.1 |
| 20260504185643 | 75 | 118 | 1.0 | 6.0 | 0.00 | 0.00 | 0.00 | 49 | 1011.3 |
| 20260504184643 | 76 | 237 | 2.0 | 9.0 | 0.00 | 0.00 | 0.00 | 46 | 1011.4 |
| 20260504183643 | 75 | 63 | 2.0 | 9.0 | 0.00 | 0.00 | 0.00 | 48 | 1011.5 |
| 20260504182646 | 75 | 292 | 3.0 | 6.0 | 0.00 | 0.00 | 0.00 | 47 | 1011.8 |
| 20260504181646 | 74 | 306 | 1.0 | 3.0 | 0.00 | 0.00 | 0.00 | 50 | 1011.9 |
| 20260504180647 | 74 | 254 | 3.0 | 4.0 | 0.00 | 0.00 | 0.00 | 48 | 1012.0 |
| 20260504175646 | 75 | 272 | 1.0 | 8.0 | 0.00 | 0.00 | 0.00 | 46 | 1012.1 |
| 20260504174829 | 74 | 257 | 2.0 | 8.0 | 0.00 | 0.00 | 0.00 | 48 | 1012.3 |
| 20260504174646 | 74 | 257 | 2.0 | 8.0 | 0.00 | 0.00 | 0.00 | 48 | 1012.3 |
| 20260504173646 | 74 | 42 | 1.0 | 5.0 | 0.00 | 0.00 | 0.00 | 46 | 1012.3 |
| 20260504172645 | 74 | 88 | 1.0 | 9.0 | 0.00 | 0.00 | 0.00 | 49 | 1012.4 |
| 20260504171645 | 73 | 19 | 1.0 | 10.0 | 0.00 | 0.00 | 0.00 | 47 | 1012.5 |
| 20260504170645 | 73 | 89 | 0.0 | 4.0 | 0.00 | 0.00 | 0.00 | 45 | 1012.7 |